COSMO-SKYMED 3

Last updated on Mon Oct 14 2024 00:02:24 GMT+0000 (Coordinated Universal Time)

1 33412U 08054A 24287.55299349 .00009381 00000+0 76378-3 0 9993 2 33412 97.8653 125.3615 0016930 175.3155 184.8230 14.99632130865016
UTC large
Height (km)
Speed (km/s)
/
Latitude / Longitude
Inclination (degrees)
Orbital Period (minutes)
Azimuth
Elevation
Range (km)
Doppler Factor

Next 0 passes for location: London (51.5072 / 0.1276)

Sorry there are no passes over London.